Hourly Data Report for September 04, 2020

BRIER ISLAND
NOVA SCOTIA
Current Station Operator: ECCC - MSC

44°17'09.000" N
66°20'48.000" W
15.80 m
8200604
71988
WVU

Download Data

Hourly Data (September 2020)
Hourly Data Report for September 4, 2020
TIME Temp Definition
°C
Dew Point Definition
°C
Rel Hum Definition
%
Wind Dir Definition
10's deg

Wind Spd Definition
km/h
Visibility Definition
km
Stn Press Definition
kPa
Hmdx Definition


Wind Chill Definition


Weather Definition


00:00 16.2 16.2 100 16 21   100.38     LegendNANA
01:00 16.1 16.1 100 16 26   100.32     LegendNANA
02:00 16.3 16.3 100 17 23   100.33     LegendNANA
03:00 17.2 17.2 100 20 22   100.39     LegendNANA
04:00 15.2 15.2 100 22 14   100.48     LegendNANA
05:00 15.2 15.2 100 20 11   100.51     LegendNANA
06:00 13.5 13.5 100 15 12   100.55     LegendNANA
07:00 14.0 14.0 100 16 14   100.60     LegendNANA
08:00 14.1 14.1 100 15 24   100.67     LegendNANA
09:00 14.4 14.4 100 15 23   100.73     LegendNANA
10:00 15.0 15.0 100 15 20   100.75     LegendNANA
11:00 15.4 15.4 100 15 17   100.73     LegendNANA
12:00 16.8 16.8 100 15 22   100.72     LegendNANA
13:00 19.2 17.8 91 15 18   100.75     LegendNANA
14:00 17.8 15.9 89 15 17   100.74     LegendNANA
15:00 19.8 18.0 90 17 20   100.74     LegendNANA
16:00 16.7 16.0 96 15 16   100.71     LegendNANA
17:00 20.4 18.3 88 19 16   100.74 27   LegendNANA
18:00 16.9 16.5 98 16 13   100.76     LegendNANA
19:00 15.0 15.0 100 16 10   100.82     LegendNANA
20:00 15.3 LegendMM LegendMM 19 9   100.88     LegendNANA
21:00 14.2 LegendMM LegendMM 17 9   100.93     LegendNANA
22:00 13.8 LegendMM LegendMM 18 4   100.96     LegendNANA
23:00 14.7 LegendMM LegendMM 25 17   101.03     LegendNANA

Notes on Data Quality.

Legend

  • E = Estimated
  • M = Missing
  • NA = Not Available*
  • [empty] = Indicates an unobserved value
Date modified: